MDT,Max TemperatureF,Mean TemperatureF,Min TemperatureF,Max Dew PointF,MeanDew PointF,Min DewpointF,Max Humidity, Mean Humidity, Min Humidity, Max Sea Level PressureIn, Mean Sea Level PressureIn, Min Sea Level PressureIn, Max VisibilityMiles, Mean VisibilityMiles, Min VisibilityMiles, Max Wind SpeedMPH, Mean Wind SpeedMPH, Max Gust SpeedMPH,PrecipitationIn, CloudCover, Events, WindDirDegrees
2012-10-1,66,51,36,44,37,29,100,64,27,30.28,30.17,29.81,10,7,0,20,9,24,0.00,1,Fog,268
2012-10-2,77,61,45,38,34,30,66,45,23,29.82,29.73,29.67,10,10,10,21,11,28,0.00,0,,290
2012-10-3,50,42,33,39,34,32,100,83,66,30.38,30.09,29.84,10,4,0,25,13,32,0.60,8,Fog-Rain-Snow,345
2012-10-4,40,32,24,32,29,22,96,78,59,30.42,30.38,30.31,10,10,8,18,13,24,T,7,Snow,323
2012-10-5,41,30,19,25,20,17,88,64,40,30.47,30.42,30.36,10,10,10,21,9,26,0.00,1,,323
2012-10-6,47,33,19,22,17,12,84,56,28,30.48,30.36,30.14,10,10,10,16,7,21,0.00,1,,260
2012-10-7,57,42,27,37,29,20,75,57,38,30.11,29.92,29.67,10,10,10,22,12,30,T,4,Rain,263
2012-10-8,53,44,35,41,35,24,76,62,48,29.90,29.75,29.61,10,10,10,30,16,37,0.01,5,Rain,303
2012-10-9,45,35,24,27,24,18,85,62,39,30.12,30.04,29.91,10,10,10,28,12,35,T,4,,305
2012-10-10,68,46,24,36,30,19,85,55,24,30.09,29.95,29.77,10,10,10,31,13,38,T,5,,293
2012-10-11,42,37,32,34,28,23,89,70,50,30.37,30.26,30.09,10,10,7,18,8,22,T,7,Rain,1
2012-10-12,65,48,30,32,29,24,92,61,30,30.23,29.92,29.68,10,10,10,25,15,31,0.00,0,,175
2012-10-13,68,52,35,38,35,32,79,54,29,29.95,29.78,29.63,10,10,10,22,9,26,0.00,1,,304
2012-10-14,69,51,33,41,36,31,92,60,28,30.02,29.95,29.85,10,10,10,26,9,31,0.00,1,,260
2012-10-15,76,63,50,51,40,34,93,58,23,29.81,29.69,29.62,10,10,8,23,12,27,0.02,3,Rain,257
2012-10-16,64,53,42,51,46,42,96,72,48,29.62,29.41,29.30,10,10,10,20,11,30,0.08,4,Rain,242
2012-10-17,52,46,39,39,29,17,89,58,26,29.65,29.50,29.32,10,10,7,50,35,67,0.05,6,Rain,297
2012-10-18,42,38,34,36,33,28,92,75,57,30.06,29.90,29.65,10,10,8,37,24,52,T,7,Rain,318
2012-10-19,55,39,23,32,27,22,92,62,32,30.04,29.85,29.62,10,10,9,14,8,,0.00,2,,226
2012-10-20,72,56,40,48,38,27,93,58,23,29.65,29.56,29.51,10,10,7,18,7,21,0.18,4,Rain,248
2012-10-21,53,48,42,45,35,29,83,62,41,30.05,29.92,29.68,10,10,9,12,7,,0.04,7,Rain,30
2012-10-22,44,40,36,36,34,32,92,81,70,30.07,29.92,29.66,10,10,5,18,14,23,0.19,8,Rain,106
2012-10-23,44,37,30,43,39,28,100,85,70,29.94,29.70,29.60,10,7,1,20,10,30,0.15,6,Rain,279
2012-10-24,35,30,24,28,24,21,92,78,64,30.18,30.07,29.94,10,10,10,21,13,27,0.00,3,,296
2012-10-25,32,29,25,23,21,19,88,76,63,30.37,30.25,30.07,10,10,10,30,20,35,0.00,8,,304
2012-10-26,33,26,18,20,15,12,80,63,45,30.44,30.37,30.29,10,10,10,24,11,30,0.00,6,,277
2012-10-27,31,25,19,23,20,14,88,76,63,30.29,30.23,30.13,10,9,5,13,8,17,T,8,Snow,75
2012-10-28,35,30,25,32,28,23,100,92,84,30.24,30.08,29.94,10,6,1,21,13,28,T,8,Snow,132
2012-10-29,59,45,30,42,36,29,96,70,44,30.04,29.99,29.94,10,9,4,15,8,22,0.01,6,Rain,142
2012-10-30,64,50,35,44,38,33,100,70,39,30.02,29.98,29.94,10,10,10,16,7,21,0.01,0,,255
2012-10-31,52,43,33,41,36,30,92,78,63,30.14,30.04,29.94,10,10,8,17,9,21,0.00,7,,351